Wind_Speed
14 13 8 13 11 8 4 8 7 5 4 4 2 5 2 2 5 9 8 8 5 7 5 3 3 2 5 6 8 9 9 12 12 14 15 11 15 15 15 17 21 13 24 16
15 15 16 14 11 9 5 5 3 3 2 6 3 2 4 3 4 16 13 7 6 9 7 4 5 4 7 9 11 10 12 12 12 15 13 10 11 8 16 14 13 21 18 17
20 18 15 15 11 7 12 8 1 1 6 10 9 6 3 5 8 19 13 13 8 10 10 10 8 7 8 9 7 10 15 16 13 14 16 15 10 10 13 15 15 14 11 15
13 13 15 12 7 9 6 6 6 7 12 13 4 2 4 4 4 11 18 14 11 11 7 9 9 8 10 9 7 8 12 14 14 14 15 16 17 14 12 10 13 13 12 12
10 8 11 12 11 7 5 9 11 8 4 6 11 6 7 5 4 4 14 24 18 13 11 7 11 9 13 11 7 7 9 13 13 13 15 13 19 14 10 11 11 12 13 13
17 14 14 11 13 11 9 13 13 10 8 4 5 6 13 14 11 10 9 26 21 17 15 13 13 13 17 13 10 8 9 10 12 12 14 16 15 17 14 11 11 12 12 11
19 15 13 9 9 10 13 16 18 15 13 10 5 4 3 14 18 15 9 12 18 21 21 12 19 14 13 14 13 11 11 11 10 10 13 14 16 16 15 12 11 11 11 11
11 6 7 6 8 8 11 15 19 20 15 12 8 8 12 9 14 15 11 12 18 27 18 21 25 21 17 16 14 12 12 11 10 14 15 12 15 15 15 12 11 11 11 11
10 5 6 9 4 9 11 13 14 16 18 15 13 14 12 13 12 15 18 18 23 20 14 23 31 27 20 18 15 15 15 14 12 14 16 14 14 16 17 15 11 10 11 11
6 7 9 5 5 5 10 12 12 13 15 16 13 15 17 9 13 17 19 20 21 27 21 21 35 29 22 21 20 17 17 16 15 16 18 17 17 16 16 16 14 11 10 11
15 11 13 12 11 8 9 11 13 15 16 19 16 13 12 13 16 19 16 20 21 22 24 27 28 33 30 27 25 23 21 18 18 20 20 18 18 18 17 16 15 16 15 13
12 11 14 17 18 20 17 15 17 19 18 18 21 15 14 16 20 21 21 23 21 18 26 28 29 31 27 24 18 20 19 17 21 23 23 21 19 18 17 17 18 16 17 16
6 7 9 17 22 23 24 20 21 24 23 18 16 15 14 15 18 14 14 6 16 15 16 21 27 30 28 30 29 30 24 26 22 23 25 24 21 20 19 18 17 16 15 14
10 12 16 19 24 26 25 24 25 27 27 23 18 17 15 17 15 13 9 14 8 10 11 18 23 26 30 28 29 31 31 34 30 30 26 25 24 23 22 20 19 19 17 16
14 16 22 22 24 23 22 25 29 26 26 29 24 23 23 23 24 16 19 11 11 14 16 22 21 26 31 34 35 31 31 24 26 28 27 26 27 24 25 23 22 21 19 18
13 16 16 19 20 21 22 23 27 29 29 27 29 30 26 27 25 24 14 14 16 17 19 24 32 31 25 23 31 36 35 36 31 30 28 29 29 26 26 27 26 25 24 22
19 19 19 18 20 23 25 27 30 30 30 29 31 27 27 26 23 24 22 17 21 19 17 14 17 24 31 27 25 35 38 39 38 33 35 33 33 28 25 30 30 28 27 26
23 25 23 23 22 22 28 30 31 30 30 30 31 30 26 25 25 26 29 24 22 20 22 22 20 22 25 31 29 31 40 41 41 38 37 35 34 32 32 31 29 31 30 27
23 25 24 25 24 23 24 28 28 29 28 28 27 26 26 27 24 23 18 21 22 26 25 19 20 17 25 26 30 32 36 41 40 40 40 38 35 35 36 34 32 32 31 28
25 27 27 26 25 22 20 25 27 30 29 27 26 25 27 27 24 21 21 20 22 27 27 24 22 20 20 23 26 29 40 37 39 43 41 46 44 38 38 36 37 36 33 32
24 27 29 23 23 21 18 23 27 28 26 25 24 25 26 23 21 19 20 18 18 23 32 29 33 31 26 19 18 22 32 40 37 40 44 44 46 43 40 42 43 42 41 40
26 25 24 24 25 22 19 18 22 23 22 22 24 23 22 21 21 20 22 19 16 19 22 28 35 42 34 24 19 22 27 33 38 45 36 41 43 46 47 41 42 44 46 43
28 25 23 25 23 22 17 15 18 22 21 20 18 18 19 21 25 24 23 20 16 20 24 23 29 28 34 30 26 23 28 26 33 38 31 40 43 37 40 37 40 50 45 38
30 29 28 26 23 20 15 13 12 15 19 19 18 19 19 20 24 22 19 21 20 20 21 26 28 27 31 31 27 26 24 28 30 29 23 24 14 30 41 40 48 53 51 43
29 28 26 27 26 21 15 20 17 18 20 20 20 20 21 21 20 20 20 19 21 21 20 24 25 25 28 30 28 27 27 30 30 24 20 20 18 17 19 26 31 29 41 41
26 25 27 29 28 26 25 21 20 20 17 20 23 21 23 25 17 16 15 16 17 19 23 21 25 26 32 33 29 29 28 28 27 23 21 17 18 18 17 23 27 26 41 45
Wind_Direction
222 228 222 221 236 263 292 261 237 260 272 320 342 44 9 318 242 219 262 199 173 176 124 288 264 230 203 214 180 166 146 134 126 121 136 134 124 117 139 145 175 142 169 157
190 199 205 217 219 233 219 264 56 353 56 142 127 40 350 42 169 188 220 239 195 176 180 179 222 237 236 231 182 173 157 146 143 128 131 132 137 127 147 143 143 154 161 159
183 196 208 220 219 240 263 221 189 114 163 155 81 25 347 82 85 170 188 220 220 180 161 165 214 185 219 230 212 182 165 159 149 144 144 134 137 137 151 151 162 166 156 158
191 200 209 227 235 246 240 256 260 229 194 196 153 17 277 107 89 134 166 191 207 177 170 185 198 204 214 215 202 198 175 164 161 155 142 139 136 149 169 171 177 177 176 170
196 205 231 218 234 232 230 283 282 300 306 220 237 193 222 225 185 166 186 199 193 211 194 211 214 204 211 208 204 207 198 186 172 164 143 142 142 138 157 171 179 185 180 189
192 181 176 206 245 234 232 255 281 298 298 287 279 210 221 213 196 216 212 212 203 202 181 199 221 235 238 216 198 204 225 208 199 179 157 151 151 155 154 155 170 169 176 189
201 193 196 201 198 238 256 254 261 274 295 300 310 325 247 218 227 201 202 196 208 195 217 207 208 217 207 210 203 190 217 231 212 187 181 161 152 151 157 155 153 156 165 187
206 191 233 217 229 225 236 247 255 254 268 273 268 278 307 284 230 214 216 216 226 221 213 205 196 200 208 216 207 192 209 222 219 205 189 179 165 156 161 161 154 156 171 177
222 203 243 235 203 222 233 235 246 256 268 270 262 249 279 291 227 224 214 229 228 234 223 211 205 213 216 219 204 198 200 207 208 214 198 187 177 163 160 164 180 171 169 180
235 247 276 260 215 195 217 229 246 264 274 274 260 253 264 282 249 235 233 240 238 233 225 226 192 197 207 218 214 203 204 200 201 210 217 199 189 178 177 174 182 191 195 190
258 251 255 257 251 289 285 236 246 263 261 268 273 269 264 260 282 289 278 233 238 235 231 201 208 205 207 213 231 204 205 202 202 205 215 218 208 194 192 197 198 191 205 219
269 259 218 240 258 268 275 255 254 264 274 270 276 284 284 269 268 288 299 266 243 252 233 209 204 211 210 206 202 230 205 227 211 210 212 214 222 223 210 209 214 207 203 207
258 259 254 239 254 259 266 266 269 271 280 292 298 280 273 287 272 258 307 288 236 234 251 224 216 216 215 202 195 216 204 219 213 231 219 215 213 222 225 215 216 222 224 219
234 254 254 250 253 262 268 278 268 271 286 292 294 291 296 298 300 268 278 287 274 217 241 234 222 215 220 224 214 219 223 236 237 220 223 221 213 219 228 225 223 228 229 232
258 273 261 256 250 259 266 264 270 278 288 290 286 287 287 283 294 291 267 257 260 272 272 236 274 253 222 227 230 226 220 203 219 225 227 226 223 217 230 230 226 230 231 234
269 272 263 257 259 259 260 257 255 259 267 272 276 284 289 290 293 293 277 270 268 248 256 263 262 265 244 223 236 228 229 224 219 216 227 234 238 231 233 236 228 229 232 234
261 254 251 254 258 259 253 252 255 260 266 270 275 280 281 282 287 294 294 273 251 249 249 263 258 253 248 246 240 240 236 237 229 228 224 225 234 230 236 240 235 232 232 233
256 256 251 250 250 267 259 256 258 262 265 272 275 284 290 286 289 295 296 281 264 245 248 242 274 263 243 243 244 249 237 239 232 226 231 231 228 236 234 239 238 240 234 233
252 261 267 265 269 265 261 256 257 262 265 269 279 285 282 285 286 285 297 287 266 250 240 248 253 255 253 245 241 245 235 236 238 234 230 233 233 228 236 236 240 240 240 236
264 269 270 272 274 272 252 254 256 260 264 269 275 279 281 282 285 272 272 277 257 234 221 236 232 237 246 240 237 236 234 231 235 235 236 231 237 237 230 235 238 241 241 238
263 261 271 262 264 264 255 242 253 257 263 269 274 273 274 285 298 295 279 270 259 239 221 229 227 221 226 239 247 241 234 235 227 229 235 237 229 236 243 245 238 234 235 237
273 263 262 258 256 260 268 254 252 258 264 264 267 275 280 286 289 289 288 282 257 240 238 234 230 227 230 235 236 242 246 244 220 234 249 239 234 244 243 254 230 241 244 238
269 261 260 261 259 258 257 266 265 260 257 257 259 268 285 295 299 300 295 285 265 248 241 244 243 242 232 236 242 231 242 251 245 228 248 244 242 244 262 250 251 237 236 229
267 271 268 259 263 261 257 284 296 274 268 269 275 284 287 287 296 294 286 280 274 259 251 230 241 236 229 225 224 231 237 244 228 234 255 252 281 257 264 265 264 239 233 234
262 265 268 260 266 269 278 275 286 276 282 285 279 285 291 299 297 292 289 284 274 259 257 237 240 230 234 221 223 229 238 243 254 270 273 282 286 274 263 248 251 218 224 228
254 259 269 269 266 271 280 270 280 279 282 293 288 294 298 301 285 276 277 280 278 272 269 267 243 229 226 226 229 230 239 244 261 268 270 294 275 295 276 250 238 244 237 236
Height
5861 5863 5864 5866 5867 5867 5870 5871 5874 5874 5876 5876 5875 5874 5876 5874 5874 5875 5877 5881 5883 5884 5886 5888 5888 5890 5891 5894 5893 5892 5894 5897 5901 5902 5904 5905 5906 5907 5908 5909 5910 5912 5916 5918
5861 5861 5862 5863 5866 5867 5869 5870 5872 5873 5874 5875 5875 5875 5875 5873 5873 5874 5878 5879 5882 5885 5886 5888 5889 5890 5894 5895 5897 5895 5896 5899 5902 5903 5906 5906 5906 5908 5909 5911 5912 5914 5917 5919
5858 5860 5861 5862 5865 5867 5868 5869 5871 5874 5874 5874 5875 5876 5875 5874 5873 5873 5876 5879 5881 5885 5886 5887 5888 5890 5894 5895 5897 5897 5899 5902 5903 5904 5906 5907 5907 5909 5910 5913 5914 5915 5918 5921
5861 5861 5861 5863 5866 5867 5867 5867 5869 5871 5873 5875 5875 5877 5875 5872 5872 5874 5874 5877 5879 5882 5885 5886 5888 5889 5893 5894 5896 5898 5898 5900 5903 5905 5906 5908 5908 5910 5912 5913 5915 5917 5920 5922
5861 5861 5862 5863 5865 5865 5866 5866 5867 5868 5870 5872 5873 5876 5875 5873 5870 5870 5869 5875 5876 5879 5882 5883 5885 5887 5892 5893 5894 5896 5899 5901 5902 5905 5907 5907 5909 5911 5913 5914 5916 5920 5921 5923
5860 5860 5861 5862 5860 5862 5865 5865 5865 5866 5866 5869 5868 5872 5872 5871 5871 5870 5869 5869 5873 5876 5879 5881 5884 5887 5889 5891 5892 5895 5898 5902 5902 5904 5905 5907 5909 5911 5911 5914 5917 5919 5921 5923
5858 5859 5859 5861 5861 5861 5862 5864 5864 5865 5864 5865 5866 5868 5869 5869 5868 5868 5868 5870 5871 5872 5874 5878 5881 5885 5887 5889 5891 5894 5897 5900 5904 5904 5904 5905 5907 5910 5912 5913 5916 5918 5919 5922
5857 5860 5859 5860 5860 5862 5861 5861 5862 5862 5863 5864 5865 5866 5865 5865 5866 5867 5867 5868 5870 5871 5870 5873 5877 5881 5885 5888 5890 5892 5895 5898 5903 5905 5905 5906 5907 5909 5911 5912 5914 5916 5918 5919
5857 5857 5858 5859 5858 5859 5860 5859 5861 5861 5861 5862 5863 5864 5864 5863 5864 5865 5865 5865 5865 5867 5869 5870 5872 5877 5881 5885 5888 5890 5892 5895 5899 5904 5904 5905 5907 5908 5910 5912 5913 5915 5917 5918
5854 5855 5856 5857 5856 5856 5856 5858 5858 5858 5858 5858 5860 5861 5861 5862 5860 5862 5864 5864 5864 5862 5865 5865 5866 5872 5876 5880 5884 5887 5891 5893 5896 5900 5903 5904 5906 5908 5910 5912 5913 5915 5916 5918
5850 5852 5853 5853 5853 5854 5854 5854 5854 5855 5855 5855 5856 5859 5860 5860 5858 5858 5858 5858 5858 5859 5861 5864 5867 5869 5873 5876 5880 5884 5888 5890 5894 5897 5899 5902 5904 5906 5908 5911 5913 5914 5916 5917
5848 5849 5850 5850 5851 5851 5851 5851 5851 5851 5852 5853 5853 5857 5856 5855 5856 5857 5855 5856 5857 5858 5860 5862 5866 5865 5869 5872 5876 5881 5883 5887 5890 5894 5896 5899 5902 5904 5907 5908 5910 5912 5915 5916
5847 5848 5848 5848 5848 5847 5846 5848 5849 5847 5847 5849 5850 5852 5851 5851 5851 5854 5854 5853 5856 5858 5859 5861 5864 5865 5867 5867 5871 5875 5877 5883 5883 5890 5893 5894 5897 5901 5904 5906 5907 5909 5911 5913
5841 5842 5843 5845 5843 5843 5845 5845 5845 5845 5845 5846 5848 5848 5849 5848 5849 5850 5852 5852 5853 5854 5858 5859 5859 5862 5865 5868 5868 5869 5873 5877 5877 5882 5887 5890 5892 5895 5898 5901 5903 5905 5907 5910
5838 5839 5837 5837 5839 5840 5842 5842 5839 5841 5841 5839 5841 5842 5843 5843 5842 5845 5847 5850 5851 5852 5853 5855 5855 5854 5858 5861 5865 5868 5870 5870 5875 5877 5880 5884 5886 5888 5893 5896 5899 5901 5903 5905
5832 5833 5832 5831 5832 5834 5835 5835 5834 5835 5835 5835 5835 5836 5837 5837 5838 5837 5841 5842 5844 5848 5850 5850 5850 5850 5851 5853 5857 5861 5865 5868 5868 5873 5875 5878 5882 5883 5886 5890 5893 5896 5898 5900
5826 5828 5828 5827 5826 5826 5828 5828 5828 5828 5829 5830 5830 5832 5831 5830 5831 5831 5833 5836 5837 5839 5842 5845 5844 5844 5848 5849 5850 5854 5857 5860 5863 5867 5868 5871 5874 5877 5880 5883 5886 5890 5892 5894
5819 5820 5822 5822 5822 5821 5819 5821 5822 5824 5824 5824 5824 5825 5826 5825 5825 5824 5823 5823 5825 5829 5832 5834 5837 5838 5840 5843 5846 5848 5851 5852 5856 5861 5864 5866 5867 5870 5873 5876 5880 5883 5885 5888
5813 5813 5814 5814 5815 5815 5814 5813 5816 5816 5817 5818 5819 5820 5819 5819 5821 5821 5820 5817 5818 5819 5823 5826 5828 5830 5834 5837 5839 5841 5844 5847 5848 5853 5856 5856 5859 5862 5865 5869 5872 5874 5877 5880
5806 5807 5808 5808 5808 5808 5809 5808 5808 5807 5810 5812 5812 5814 5813 5813 5813 5815 5815 5813 5812 5813 5814 5818 5821 5826 5827 5830 5832 5833 5837 5839 5841 5845 5844 5844 5850 5854 5856 5859 5863 5868 5871 5872
5802 5801 5801 5802 5801 5802 5803 5803 5802 5804 5809 5807 5808 5806 5805 5806 5806 5807 5806 5807 5806 5806 5808 5810 5815 5819 5821 5823 5823 5824 5827 5831 5832 5834 5832 5837 5839 5843 5847 5850 5853 5858 5861 5863
5795 5795 5795 5796 5796 5799 5799 5799 5799 5799 5800 5800 5800 5799 5799 5800 5799 5799 5798 5798 5799 5799 5800 5802 5805 5811 5813 5813 5815 5818 5819 5820 5825 5824 5814 5823 5828 5832 5838 5842 5844 5848 5850 5853
5787 5789 5791 5791 5792 5792 5794 5795 5794 5793 5792 5792 5794 5795 5795 5794 5791 5790 5789 5789 5791 5793 5794 5794 5796 5800 5805 5805 5808 5809 5812 5814 5815 5819 5819 5818 5821 5826 5829 5831 5833 5837 5840 5842
5780 5782 5783 5785 5787 5787 5791 5791 5789 5787 5787 5787 5788 5789 5789 5788 5785 5782 5781 5779 5779 5781 5783 5785 5787 5788 5794 5798 5801 5803 5805 5808 5808 5811 5811 5813 5812 5814 5818 5820 5822 5823 5827 5831
5775 5776 5777 5779 5780 5783 5786 5786 5785 5783 5783 5782 5782 5782 5781 5780 5778 5775 5774 5773 5772 5773 5774 5776 5778 5781 5787 5791 5793 5797 5800 5801 5803 5805 5806 5806 5807 5809 5812 5813 5814 5818 5820 5824
5767 5770 5772 5772 5775 5776 5779 5779 5778 5777 5778 5776 5775 5776 5775 5773 5772 5770 5769 5769 5768 5767 5767 5769 5772 5775 5779 5784 5787 5791 5794 5795 5798 5801 5802 5803 5802 5803 5805 5805 5806 5813 5817 5817